Weather History for KDUB - April, 2014

Change the Weather History Date:

Sunday, April 20, 2014

  Actual Average (KJAC) Record (KJAC)
Temperature  
Mean Temperature 45 °F -  
Max Temperature 57 °F 46 °F 66 °F (1962)
Min Temperature 33 °F 22 °F 0 °F (1966)
Degree Days  
Heating Degree Days 20    
Moisture  
Dew Point 19 °F    
Average Humidity 41    
Maximum Humidity 70    
Minimum Humidity 14    
Precipitation  
Precipitation 0.00 in - - ()
Sea Level Pressure  
Sea Level Pressure 30.13 in    
Wind  
Wind Speed 12 mph (NW)    
Max Wind Speed 25 mph    
Max Gust Speed 31 mph    
Visibility 10 miles    
Events      
Averages and records for this station are not official NWS values.
T = Trace of Precipitation, MM = Missing Value Source: NWS Daily Summary

Daily Weather History Graph

Daily Weather History Graph

Search for Another Location

Airport or City:

Trip Planner

Search our weather history database for the weather conditions in past years. The results will help you decide how hot, cold, wet, or windy it might be!

Date:

Astronomy

Apr. 20, 2014 Rise Set
Actual Time 6:27 AM MDT 8:08 PM MDT
Civil Twilight 5:57 AM MDT 8:38 PM MDT
Nautical Twilight 5:20 AM MDT 9:15 PM MDT
Astronomical Twilight 4:41 AM MDT 9:55 PM MDT
Moon 12:54 AM MDT (4/20) 10:48 AM MDT (4/20)
Length of Visible Light 14h 40m
Length of Day
13h 40m
Waning Gibbous, 68% of the Moon is Illuminated
Apr 20
Waning Gibbous
Apr 22
Last Quarter
Apr 29
New
May 6
First Quarter
May 14
Full

Hourly Weather History & Observations

Time (MDT) Temp. Windchill Dew Point Humidity Pressure Visibility Wind Dir Wind Speed Gust Speed Precip Events Conditions
12:15 AM 35.6 °F 28.0 °F 21.2 °F 56% 30.05 in 10.0 mi WNW 10.4 mph 18.4 mph N/A   Clear
12:35 AM 35.6 °F 26.2 °F 21.2 °F 56% 30.05 in 10.0 mi West 15.0 mph - N/A   Clear
12:55 AM 33.8 °F 24.8 °F 23.0 °F 65% 30.05 in 10.0 mi West 12.7 mph - N/A   Clear
1:15 AM 35.6 °F 25.5 °F 23.0 °F 60% 30.06 in 10.0 mi WNW 17.3 mph - N/A   Clear
1:35 AM 33.8 °F 24.8 °F 23.0 °F 65% 30.06 in 10.0 mi WNW 12.7 mph 18.4 mph N/A   Clear
1:55 AM 33.8 °F 24.8 °F 23.0 °F 65% 30.06 in 10.0 mi WNW 12.7 mph - N/A   Clear
2:15 AM 33.8 °F 24.8 °F 21.2 °F 60% 30.07 in 10.0 mi WNW 12.7 mph - N/A   Clear
2:35 AM 33.8 °F 24.8 °F 23.0 °F 65% 30.06 in 10.0 mi WNW 12.7 mph - N/A   Clear
2:55 AM 33.8 °F 25.3 °F 23.0 °F 65% 30.06 in 10.0 mi WNW 11.5 mph - N/A   Clear
3:15 AM 33.8 °F 24.8 °F 23.0 °F 65% 30.06 in 10.0 mi WNW 12.7 mph - N/A   Mostly Cloudy
3:35 AM 33.8 °F 25.8 °F 23.0 °F 65% 30.06 in 10.0 mi WNW 10.4 mph - N/A   Scattered Clouds
3:55 AM 33.8 °F 27.0 °F 23.0 °F 65% 30.05 in 10.0 mi West 8.1 mph - N/A   Clear
4:15 AM 35.6 °F 31.7 °F 23.0 °F 60% 30.05 in 10.0 mi NW 4.6 mph - N/A   Clear
4:35 AM 35.6 °F 30.7 °F 23.0 °F 60% 30.05 in 10.0 mi NNW 5.8 mph - N/A   Clear
4:55 AM 35.6 °F 32.8 °F 23.0 °F 60% 30.05 in 10.0 mi NW 3.5 mph - N/A   Clear
5:15 AM 33.8 °F 30.8 °F 23.0 °F 65% 30.05 in 10.0 mi NW 3.5 mph - N/A   Clear
5:35 AM 35.6 °F 28.0 °F 24.8 °F 65% 30.05 in 10.0 mi NNW 10.4 mph - N/A   Clear
5:55 AM 37.4 °F 30.8 °F 24.8 °F 60% 30.05 in 10.0 mi NW 9.2 mph 16.1 mph N/A   Clear
6:10 AM 35.6 °F 28.0 °F 24.8 °F 65% 30.06 in 10.0 mi NW 10.4 mph - N/A   Clear
6:35 AM 35.6 °F 29.2 °F 24.8 °F 65% 30.06 in 10.0 mi NW 8.1 mph - N/A   Clear
6:55 AM 35.6 °F 29.2 °F 26.6 °F 70% 30.07 in 10.0 mi West 8.1 mph - N/A   Clear
7:15 AM 35.6 °F 28.0 °F 26.6 °F 70% 30.07 in 10.0 mi WNW 10.4 mph - N/A   Clear
7:35 AM 35.6 °F 29.2 °F 26.6 °F 70% 30.08 in 10.0 mi NW 8.1 mph - N/A   Clear
7:55 AM 39.2 °F 33.6 °F 26.6 °F 61% 30.08 in 10.0 mi NW 8.1 mph - N/A   Clear
8:15 AM 39.2 °F 35.0 °F 26.6 °F 61% 30.09 in 10.0 mi NW 5.8 mph - N/A   Clear
8:35 AM 44.6 °F 39.7 °F 28.4 °F 53% 30.09 in 10.0 mi NNW 9.2 mph - N/A   Clear
8:55 AM 50.0 °F - 24.8 °F 37% 30.09 in 10.0 mi West 18.4 mph 23.0 mph N/A   Clear
9:15 AM 50.0 °F - 24.8 °F 37% 30.10 in 10.0 mi NW 11.5 mph 19.6 mph N/A   Scattered Clouds
9:35 AM 51.8 °F - 24.8 °F 35% 30.10 in 10.0 mi WNW 15.0 mph - N/A   Clear
9:55 AM 51.8 °F - 23.0 °F 33% 30.10 in 10.0 mi West 12.7 mph - N/A   Clear
10:15 AM 51.8 °F - 21.2 °F 30% 30.10 in 10.0 mi North - - N/A   Clear
10:35 AM 51.8 °F - 21.2 °F 30% 30.11 in 10.0 mi North - - N/A   Clear
11:15 AM 55.4 °F - 21.2 °F 26% 30.11 in 10.0 mi WNW 25.3 mph 31.1 mph N/A   Scattered Clouds
11:35 AM 55.4 °F - 21.2 °F 26% 30.12 in 10.0 mi North - - N/A   Scattered Clouds
11:55 AM 55.4 °F - 21.2 °F 26% 30.12 in 10.0 mi NW 19.6 mph 25.3 mph N/A   Scattered Clouds
12:15 PM 55.4 °F - 21.2 °F 26% 30.13 in 10.0 mi WNW 15.0 mph 25.3 mph N/A   Mostly Cloudy
12:35 PM 55.4 °F - 19.4 °F 25% 30.13 in 10.0 mi North - - N/A   Mostly Cloudy
12:55 PM 55.4 °F - 19.4 °F 25% 30.13 in 10.0 mi NW 16.1 mph 20.7 mph N/A   Scattered Clouds
1:15 PM 57.2 °F - 17.6 °F 21% 30.14 in 10.0 mi NW 13.8 mph 25.3 mph N/A   Scattered Clouds
1:35 PM 57.2 °F - 17.6 °F 21% 30.14 in 10.0 mi NNW 16.1 mph 26.5 mph N/A   Scattered Clouds
1:55 PM 55.4 °F - 17.6 °F 23% 30.14 in 10.0 mi NNW 21.9 mph 26.5 mph N/A   Clear
2:15 PM 55.4 °F - 17.6 °F 23% 30.14 in 10.0 mi NNW 18.4 mph 28.8 mph N/A   Clear
2:35 PM 55.4 °F - 14.0 °F 20% 30.15 in 10.0 mi NNW 17.3 mph 25.3 mph N/A   Clear
2:55 PM 55.4 °F - 10.4 °F 17% 30.15 in 10.0 mi NNW 19.6 mph 26.5 mph N/A   Clear
3:15 PM 55.4 °F - 8.6 °F 15% 30.15 in 10.0 mi NNW 19.6 mph 29.9 mph N/A   Clear
3:35 PM 55.4 °F - 8.6 °F 15% 30.15 in 10.0 mi North 17.3 mph 26.5 mph N/A   Clear
3:55 PM 55.4 °F - 6.8 °F 14% 30.15 in 10.0 mi NNW 16.1 mph 23.0 mph N/A   Clear
4:15 PM 55.4 °F - 6.8 °F 14% 30.16 in 10.0 mi NNW 15.0 mph 25.3 mph N/A   Clear
4:35 PM 55.4 °F - 8.6 °F 15% 30.16 in 10.0 mi NNW 18.4 mph 23.0 mph N/A   Clear
4:55 PM 55.4 °F - 6.8 °F 14% 30.16 in 10.0 mi NNW 15.0 mph 23.0 mph N/A   Clear
5:15 PM 55.4 °F - 8.6 °F 15% 30.17 in 10.0 mi NNW 15.0 mph 23.0 mph N/A   Clear
5:35 PM 53.6 °F - 8.6 °F 16% 30.17 in 10.0 mi North 15.0 mph 19.6 mph N/A   Clear
5:55 PM 53.6 °F - 10.4 °F 18% 30.17 in 10.0 mi NNW 13.8 mph 21.9 mph N/A   Clear
6:15 PM 53.6 °F - 10.4 °F 18% 30.17 in 10.0 mi NW 10.4 mph 19.6 mph N/A   Clear
6:35 PM 51.8 °F - 12.2 °F 21% 30.18 in 10.0 mi NNW 11.5 mph - N/A   Clear
6:55 PM 51.8 °F - 10.4 °F 19% 30.18 in 10.0 mi NW 13.8 mph - N/A   Clear
7:15 PM 51.8 °F - 12.2 °F 21% 30.18 in 10.0 mi NW 11.5 mph - N/A   Clear
7:35 PM 50.0 °F - 14.0 °F 24% 30.19 in 10.0 mi NW 9.2 mph - N/A   Clear
7:55 PM 46.4 °F 41.5 °F 14.0 °F 27% 30.18 in 10.0 mi WNW 10.4 mph - N/A   Clear
8:15 PM 44.6 °F 39.7 °F 14.0 °F 29% 30.19 in 10.0 mi WNW 9.2 mph - N/A   Clear
8:35 PM 44.6 °F 39.7 °F 15.8 °F 31% 30.20 in 10.0 mi NW 9.2 mph - N/A   Clear
8:55 PM 42.8 °F 36.2 °F 19.4 °F 39% 30.21 in 10.0 mi WNW 12.7 mph - N/A   Clear
9:15 PM 41.0 °F 35.2 °F 19.4 °F 42% 30.22 in 10.0 mi WNW 9.2 mph - N/A   Clear
9:50 PM 39.2 °F 35.9 °F 19.4 °F 45% 30.23 in 10.0 mi WNW 4.6 mph - N/A   Clear
10:15 PM 37.4 °F 33.8 °F 19.4 °F 48% 30.24 in 10.0 mi NW 4.6 mph - N/A   Clear
10:35 PM 35.6 °F 31.7 °F 19.4 °F 52% 30.25 in 10.0 mi NW 4.6 mph - N/A   Clear
10:55 PM 35.6 °F 28.6 °F 19.4 °F 52% 30.25 in 10.0 mi WNW 9.2 mph - N/A   Clear
11:15 PM 35.6 °F 29.9 °F 19.4 °F 52% 30.25 in 10.0 mi NW 6.9 mph - N/A   Clear
11:35 PM 35.6 °F 29.2 °F 21.2 °F 56% 30.24 in 10.0 mi WNW 8.1 mph - N/A   Clear
11:55 PM 33.8 °F 26.4 °F 21.2 °F 60% 30.25 in 10.0 mi WNW 9.2 mph - N/A   Clear